ランキン彗星

C/2025 V2 ( Rankin )

English version
Home page
Updated on July 12, 2026

---------------------------------------------------------------------

・ プロフィール

発見日 2025年11月2日
発見光度 19.8等
発見者 David Rankin (Mt. Lemmon)

・ 写真集

・ 軌道要素

Epoch 2026 June 9.0 TT = JDT 2461200.5
T 2027 Mar. 23.02791 TT                                 Pike
q   1.9506321            (2000.0)            P               Q
z  -0.0001442      Peri.  102.77073     -0.35373745     +0.84319567
 +/-0.0000032      Node   138.08556     -0.90022748     -0.42439947
e   1.0002813      Incl.   37.30237     +0.25389032     -0.33000933
From 569 observations 2024 Nov. 29-2026 June 19, mean residual 0".5.

・ 星図

・ 光度変化

        m1 = 8.5 + 5 logΔ + 10.0 log r

---------------------------------------------------------------------

軌道要素はM.P.E.C. 2026-N12に掲載されたものです。
星図はステラナビゲータ Ver.11 (アストロアーツ) で作成したものです。
光度グラフはComet for Windowsで作成したものです。

---------------------------------------------------------------------

Copyright(C) Seiichi Yoshida (comet@aerith.net). All rights reserved.